Weather Roundup
Issued by NWS

Home | Current Version | Previous Version | Graphics & Text | Print | Product List | Glossary Off
Versions: 1 2 3 4 5 6 7 8 9 10 11 12 13 14 15 16 17 18 19 20 21 22 23 24 25 26 27 28 29 30 31 32 33 34 35 36 37 38 39 40 41 42 43 44 45 46 47 48 49 50

000
NZUS93 KARX 300110
HRRWXR

CURRENT HOURLY OBSERVATIONS ACROSS
MUCH OF THE UPPER MISSISSIPPI VALLEY
NATIONAL WEATHER SERVICE LA CROSSE WI
800 PM CDT SAT AUG 29 2015


...SOUTHEAST MINNESOTA...


CITY           SKY/WX    TMP DP  RH WIND       PRES   REMARKS
ROCHESTER      PTCLDY    65  63  93 SE7       30.05S
ROCHESTER/MAYO FAIR      69  64  86 SE7       30.04S
WINONA         MOCLDY    70  63  78 CALM      30.04S
AUSTIN         PTCLDY    70  64  83 CALM      30.04S
ALBERT LEA     CLEAR     66  64  94 CALM      30.04S
DODGE CENTER   PTCLDY    66  64  94 CALM      30.05S
PRESTON        MOCLDY    66  61  83 CALM      30.06S
OWATONNA       PTCLDY    66  63  88 CALM      30.03F
FARIBAULT      CLEAR     66  64  94 CALM      30.03F
$$

...ELSEWHERE IN MINNESOTA...


CITY           SKY/WX    TMP DP  RH WIND       PRES   REMARKS
MINNEAPOLIS    MOCLDY    72  63  73 S5        30.00F
INTNL FALLS    PTCLDY    67  64  90 SE5       29.91S
DULUTH         PTCLDY    69  62  78 SW8       29.99S
RED WING       PTCLDY    66  63  88 CALM      30.02R
REDWOOD FALLS  MOCLDY    68  65  90 SE8       29.99S
MANKATO        PTCLDY    66  61  82 S6        30.01F
WORTHINGTON    PTCLDY    66  61  82 S8        30.02F
FAIRMONT       MOCLDY    64  57  77 S6        30.03S
$$

...SOUTHWEST WISCONSIN...


CITY           SKY/WX    TMP DP  RH WIND       PRES   REMARKS
LA CROSSE      CLOUDY    69  60  73 SE5       30.04R
PRAIRIE DU CHI CLOUDY    68  61  79 CALM      30.04S
BOSCOBEL       CLOUDY    69  65  86 CALM      30.04R
LONE ROCK      CLOUDY    68  63  84 N5        30.05R
PLATTEVILLE    CLOUDY    67  65  93 N5        30.04R
FORT MC COY    CLOUDY    67  59  76 CALM      30.06S
CAMP DOUGLAS   CLOUDY    66  66 100 CALM      30.05R
VIROQUA          N/A     65  64  96 E3        30.06R
WIS DELLS      CLOUDY    66  61  84 CALM      30.05R
$$

...ELSEWHERE IN WISCONSIN...


CITY           SKY/WX    TMP DP  RH WIND       PRES   REMARKS
MILWAUKEE      DRZL/FOG  63  61  93 N9        30.04R VSB 1/2
MADISON        CLOUDY    66  62  87 CALM      30.04R
GREEN BAY      CLEAR     64  61  90 CALM      30.04R
EAU CLAIRE     PTCLDY    65  62  90 CALM      30.03S
BLACK RVR FLS  CLOUDY    66  63  88 CALM      30.04S
MEDFORD        PTCLDY    60  59  96 S5        30.06S
WAUSAU         CLEAR     63  60  90 SW5       30.04F
WIS RAPIDS     CLOUDY    66  59  78 NE5       30.07R
MARSHFIELD     CLOUDY    65  58  78 CALM      30.06S
RICE LAKE      PTCLDY    66  62  86 S5        30.04F
$$

...NORTHEAST IOWA...


CITY           SKY/WX    TMP DP  RH WIND       PRES   REMARKS
DECORAH        CLOUDY    68  64  88 E3        30.04R
MASON CITY     MOCLDY    66  64  93 S3        30.06R
CHARLES CITY   MOCLDY    68  66  94 E5        30.05S
OELWEIN          N/A    N/A N/A N/A MISG        N/A
$$

...ELSEWHERE IN IOWA...


CITY           SKY/WX    TMP DP  RH WIND       PRES   REMARKS
DES MOINES     CLOUDY    71  64  78 NE5       30.03R
IOWA CITY      CLOUDY    73  68  84 N5        30.03R
FORT DODGE     CLOUDY    64  61  88 NW3       30.06R
$$

...NORTHERN ILLINOIS...


CITY           SKY/WX    TMP DP  RH WIND       PRES   REMARKS
CHICAGO-OHARE  CLOUDY    68  66  93 N5        30.01R FOG
CHICAGO-MIDWAY CLOUDY    71  67  87 N7        30.00S FOG
MOLINE         MOCLDY    72  67  84 CALM      30.01R
ROCKFORD       DRIZZLE   69  64  84 N7        30.04R
PEORIA         CLOUDY    77  69  76 NE5       30.00R
$$

NOTE: "FAIR" INDICATES FEW OR NO CLOUDS BELOW 12,000 FEET WITH NO
SIGNIFICANT WEATHER AND/OR OBSTRUCTIONS TO VISIBILITY. WIND
SPEEDS ARE IN MILES-PER-HOUR.



USA.gov is the U.S. government's official web portal to all federal, state and local government web resources and services.